Tracking 30258 objects as of 19-Feb-2025
HD Live streaming from Space Station
objects crossing your sky now

STARLINK-4016

Track STARLINK-4016 now!
10-day predictions
STARLINK-4016 is classified as:


NORAD ID: 52603
Int'l Code: 2022-052F
Perigee: 545.8 km
Apogee: 548.0 km
Inclination: 53.2 °
Period: 95.4 minutes
Semi major axis: 6917 km
RCS: Unknown
Launch date: May 14, 2022
Source: United States (US)
Launch site: AIR FORCE EASTERN TEST RANGE (AFETR)
Your satellite tracking list
Your tracking list is empty




NASA's NSSDC Master Catalog

Two Line Element Set (TLE):
1 52603U 22052F   25050.58307819  .00000160  00000-0  28166-4 0  9994
2 52603  53.2172 198.9640 0001592  93.0764 267.0411 15.08831836153824
Source of the keplerian elements: AFSPC